Race Coverage Navigation

TS # 26 / Pratt, KS  2019

 


TS STATS
TS Distance 32.11 
Total Distance 1543.21 
Miles To Go 1527.07 
TS Climbing 1494 
Total Climbing
TS  Elevation
TS  Net Elevation 2368 
Map Filename Open Map 
Directions Filename  
Latitude 37.65 
Longitude -98.71 
Google Map  TimeStation Map 


TS Arrival Data
Arr Ord  #/Name Arrival DT Ascending TS Dst Avg This TS Avg Overall
 1 377 - Christoph Strasser  06/15/2019 11:13 32.11  20.28  17.04 
 2 279 - Marko Baloh  06/15/2019 22:22 32.11  14.06  15.17 
 3 288 - Dave Haase  06/16/2019 2:03 32.11  14.6  14.64 
 4 609 - Jakob Olsen  06/16/2019 7:06 32.11  5.77  13.93 
 5 617 - SOLO.kiwi (Craig Harper)  06/16/2019 10:11 32.11  16.9  13.54 
 6 529 - Isa Pulver  06/16/2019 10:22 32.11  17.36  13.5 
 7 612 - Markus K. Brandl  06/16/2019 13:19 32.11  11.75  13.19 
 8 329 - Peter Oyler  06/16/2019 16:39 32.11  19.86  12.85 
 9 622 - Thomas Odom-Team Kyle Pease Foundation  06/16/2019 17:08 32.11  15.17  12.76 
 10 416 - Leah Goldstein  06/16/2019 19:05 32.11  16.33  12.55 
 11 623 - Ultra Paka Racing Team (Daniel Polman)  06/16/2019 20:34 32.11  14.71  12.4 
 12 367 - Daniela Genovesi  06/16/2019 21:05 32.11  18.35  12.35 
 13 603 - Alan Bradley  06/17/2019 1:10 32.11  15.79  11.98 
 14 615 - Philipp Amhof  06/17/2019 3:09 32.11  17.51  11.79 
 15 604 - Chieko Ozawa  06/17/2019 4:21 32.11  8.52  11.66 
 16 568 - Alexandra Meixner  06/17/2019 5:06 32.11  7.5  11.6 
 17 611 - Marcelo Soares " MIXIRICA "  06/17/2019 6:58 32.11  9.17  11.46 
 18 442 - Joe Barr  06/17/2019 7:34 32.11  14.71  11.43 
 19 510 - John C. Tarlton  06/17/2019 8:53 32.11  17.84  11.31 
 20 559 - Team Martin RAAM 2019 (Martin Bergmeister)  06/17/2019 9:20 32.11  16.61  11.27 
 21 411 - Geoff Brunner  06/17/2019 10:30 32.11  14.71  11.19 
 22 610 - Kabir Rachure  06/17/2019 13:16 32.11  14.6  10.95 
 23 399 - Valerio Zamboni  06/17/2019 18:19 32.11  13.2  10.59 
 24 618 - GREGORY ROBINSON  06/17/2019 22:29 32.11  14.82  10.27 
 25 424 - Team i RON man Veterans supporting Veterans  06/17/2019 23:01 32.11  13.38  10.26 
 26 539 - Kari Rouvinen  06/18/2019 0:13 32.11  12.93  10.17 
 27 161 - Seana Hogan  06/18/2019 4:20 32.11  25.02  9.88 
 28 608 - Elin Starup  06/18/2019 7:42 32.11  5.72  9.66 
 29 T411 - team alpha - tischlerei groemmer  06/18/2019 11:26 32.11  22.94  22.67 
 30 T800 - Backstedt Racing Project 14  06/18/2019 12:02 32.11  21.65  22.51 
 31 605 - Christian Echavarria  06/18/2019 12:40 32.11  10.95  9.39 
 32 T401 - Data Techniques powered by Networks Centre  06/18/2019 14:57 32.11  22.94  21.5 
 33 T404 - Gentlemen of speed  06/18/2019 15:16 32.11  22.14  21.42 
 34 T201 - EAT WELL  06/18/2019 19:09 32.11  23.21  20.27 
 35 T805 - Team Oceanside  06/18/2019 19:12 32.11  25.69  20.4 
 36 T807 - Team ZOE International  06/18/2019 20:23 32.11  21.89  20.1 
 37 T407 - Julian Becker   06/18/2019 20:30 32.11  22.14  19.99 
 38 T802 - Scorchers  06/18/2019 22:28 32.11  18.35  19.55 
 39 T412 - Team Aspect  06/18/2019 22:46 32.11  20.94  19.44 
 40 T416 - Team Rotary Raams Polio  06/18/2019 23:09 32.11  19.46  19.36 
 41 T804 - Team FSHD Skyland Trail  06/19/2019 0:05 32.11  19.46  19.16 
 42 T408 - Radeln-fuer-Kinder (Cycling-for-Kids)  06/19/2019 0:22 32.11  19.46  19.04 
 43 T400 - Cantastic4  06/19/2019 1:32 32.11  19.08  18.74 
 44 T406 - Operation Walk Midwest  06/19/2019 1:52 32.11  20.07  18.68 
 45 T808 - Antonia's Friends 2019  06/19/2019 2:18 32.11  20.28  18.66 
 46 T418 - The Opportunists  06/19/2019 5:06 32.11  20.72  18.02 
 47 T410 - Soap-Aid  06/19/2019 6:59 32.11  19.86  17.61 
 48 T414 - Brazil Nuts  06/19/2019 7:52 32.11  18.18  17.44 
 49 T202 - Integra Medical - BAA Racing  06/19/2019 9:07 32.11  19.86  17.13 
 50 T405 - High Rollers  06/19/2019 9:22 32.11  17.84  17.12 
 51 T803 - Team EndoPark  06/19/2019 10:03 32.11  17.51  17.05 
 52 T415 - TEAM FIRE VELO 935  06/19/2019 10:51 32.11  18.18  16.88 
 53 T206 - Project Linear Acceleration  06/19/2019 11:01 32.11  17.51  16.79 
 54 T403 - EKJ Denmark  06/19/2019 11:08 32.11  19.08  16.79 
 55 T204 - Lucan CRC  06/19/2019 11:59 32.11  18.7  16.61 
 56 T413 - TEAM BRASIL - SKIPPER  06/19/2019 12:39 32.11  24.39  16.55 
 57 T806 - Team SuperMarrow  06/19/2019 13:34 32.11  19.86  16.42 
 58 T402 - EA/WFP RAAM Team  06/19/2019 13:39 32.11  17.36  16.34 
 59 T801 - Mind Over Matter  06/19/2019 14:45 32.11  20.28  16.2 
 60 T417 - Team4RAAM 2019 powered by TGW Living Logistics  06/19/2019 16:12 32.11  20.94  15.95 
 61 T200 - AIR RELAX GoPro TEAM BRASIL  06/19/2019 17:31 32.11  23.79  15.66 
 62 T207 - Team Life Time  06/19/2019 21:44 32.11  16.06  15.04 
 63 T409 - Serpentine Golden Girls  06/19/2019 23:09 32.11  16.19  14.86 
 64 T203 - JPsDuo  06/20/2019 1:32 32.11  16.75  14.49 
 65 T210 - Bike Wine Team  06/20/2019 6:59 32.11  14.49  13.8 
 66 T205 - Prevent Breast Cancer powered by Endomag  06/20/2019 8:38 32.11  14.82  13.59